Weather in Kirovsk

Belarus     53°16′23″N   29°28′06″E
temp.,
°C
wind,
m/s
gust,
m/s
humid.,
%
clouds,
%
prec.,
mm/h
press.,
hPa
HPBL,
m
19 september, sun
sun1900:00+9e71396100 0.5 1006702
03:00+9se4797100 0.9 1006576
06:00+9se4697100 0.1 1006398
09:00+9ese3495100 0.1 1006347
12:00+10se3586100 0.1 1008565
15:00+11e259099 0.2 1008376
18:00+10ne5894100 0.1 1007406
21:00+9ne5997100 1.0 1008378
20 september, mon
mon2000:00+9ne5997100 0.5 1008481
03:00+8ne5996100 1.1 1008455
06:00+7nne5995100 0.0 1008501
09:00+7nne5994100 0.0 1008520
12:00+7n5892100 0.0 1009575
15:00+7n5891100 0.0 1010575
18:00+7n5891100 0.0 1011566
21:00+6nnw5892100 0.0 1012492
21 september, tue
tue2100:00+5nnw5892100 0.0 1012476
03:00+4nw5993100 0.1 1012495
06:00+4nnw5996100 3.3 1012629
09:00+4nw61097100 6.9 1013629
12:00+4nw61097100 0.6 1013681
15:00+3nw61097100 1.0 1014696
18:00+4nw61097100 0.4 1015665
21:00+4nw51097100 0.8 1015715
22 september, wed
wed2200:00+4nw5997100 0.1 1016697
03:00+4nw5897100 0.4 1016627
06:00+3nw5897100 0.4 1016550
09:00+4nw4897100 0.6 1016501
12:00+4nw4697100 0.1 1016556
15:00+4wnw4697100 0.4 1016470
18:00+4wnw3596100 0.3 1015406
21:00+4wnw2497100 0.5 1015262
23 september, thu
thu2300:00+4w2297100 0.2 1015152
03:00+5sw1297100 0.4 1015113
06:00+5sw1197100 0.3 101496
09:00+5s129498 0.3 1014223
12:00+7sse228794 0.1 1014497
15:00+8sse2281100 0.3 1013748
18:00+6ssw1291100 0.3 1013202
21:00+6sw1294100 0.5 1013113